RH
62 67 72 72 71 64 52 58 62 63 65 66 40 27 16 12 13 17 22 29 40 48 46 36 35 34 31 24 18 15 13 12 12 11 11 11 12 12 11 9 7 8 18
55 60 63 65 68 61 56 66 68 64 66 68 35 22 16 14 14 17 20 25 29 33 34 31 29 25 23 22 17 13 13 13 13 13 13 13 12 12 11 11 11 10 10
53 58 61 65 61 60 69 74 72 67 71 68 31 21 18 16 16 18 22 26 27 27 27 24 23 22 15 14 16 17 16 15 15 14 14 13 13 13 13 13 12 12 11
43 52 55 70 71 67 76 79 83 72 76 60 28 24 22 19 17 19 23 26 25 25 24 24 19 18 16 16 16 18 18 17 16 15 15 15 14 14 15 16 16 16 15
44 45 61 78 76 66 78 85 87 78 80 52 28 28 25 20 20 21 25 26 26 26 25 20 20 18 18 18 19 19 18 17 16 16 16 15 14 23 40 54 65 60 60
63 68 85 91 81 69 83 89 92 83 82 44 32 32 26 23 20 23 26 27 28 29 32 30 23 20 20 20 20 20 18 18 19 18 18 23 23 42 87 92 95 95 95
81 85 90 93 86 79 80 90 92 88 83 42 37 33 28 24 22 25 28 30 30 31 35 32 25 22 22 22 20 20 18 19 20 21 30 46 62 88 95 94 94 94 94
82 76 80 87 87 91 90 87 90 90 82 41 39 34 30 32 28 28 28 30 31 33 35 31 26 24 23 23 21 18 18 19 18 18 37 65 94 95 95 94 93 93 93
78 82 86 86 82 87 81 80 89 88 82 46 42 37 34 32 33 34 30 32 31 31 32 28 26 25 24 23 20 19 20 19 18 18 51 91 94 93 94 94 93 92 92
65 75 81 76 78 80 79 82 89 88 81 52 42 44 41 38 30 36 35 33 30 29 28 26 27 27 26 22 19 21 20 17 15 16 50 93 95 94 95 94 93 92 92
61 62 72 73 80 78 80 84 90 90 79 51 42 44 46 46 46 43 40 40 34 30 28 27 28 27 23 20 22 21 18 15 16 17 20 56 92 94 96 95 93 95 97
62 64 63 68 69 73 83 81 90 94 82 57 46 48 48 48 49 50 49 47 41 35 31 28 26 24 20 24 23 19 17 19 17 16 14 28 91 95 96 96 96 95 94
61 65 63 61 63 68 74 90 96 93 89 57 50 51 51 50 50 52 53 51 46 38 33 28 22 22 25 25 20 20 20 19 16 13 10 17 65 91 95 97 97 96 94
54 61 64 62 60 63 69 94 98 95 87 63 58 58 53 52 52 53 53 52 41 35 30 24 24 27 27 23 23 25 22 19 16 14 12 11 12 38 84 95 97 97 96
53 57 64 69 67 65 73 92 97 94 85 75 73 68 57 54 54 56 55 55 38 28 26 28 29 27 26 24 24 24 22 20 20 21 19 19 21 35 77 95 96 95 94
54 54 64 65 78 94 81 99 95 94 82 78 68 70 59 62 56 54 53 46 30 28 36 36 32 27 27 26 26 26 22 24 25 24 22 22 37 94 98 97 97 100 100
68 75 65 68 80 98 100 99 92 86 73 71 63 75 70 67 67 66 41 32 33 35 41 35 31 29 31 28 24 23 27 28 25 22 22 28 56 98 99 100 100 100 100
85 96 97 98 100 100 98 91 83 77 79 74 71 90 86 66 73 70 62 42 37 37 37 33 34 34 35 31 36 45 40 37 32 26 33 44 50 54 70 94 100 100 100
100 100 100 100 100 99 97 84 79 82 71 81 91 90 93 63 46 40 36 36 32 29 32 38 41 45 49 49 57 53 54 33 29 38 47 48 49 51 51 71 99 99 99
100 100 100 100 100 98 84 77 75 80 92 97 96 92 92 74 75 73 34 22 22 27 32 41 53 60 77 68 72 65 60 49 54 51 47 53 52 53 52 54 57 57 57
98 100 100 100 99 86 74 76 94 100 100 100 99 99 76 69 94 45 20 21 28 31 44 56 66 93 89 74 74 77 73 71 65 49 49 53 54 51 49 53 54 55 56
100 100 100 96 89 87 93 96 99 99 92 95 95 97 98 64 20 20 24 32 39 42 51 82 93 94 83 82 85 77 90 92 94 58 66 69 62 54 55 59 58 57 57
100 99 98 96 94 94 97 99 97 99 99 99 99 88 25 21 22 20 21 26 29 35 65 93 96 84 93 80 89 97 96 88 83 66 73 73 64 58 59 60 59 57 54
96 93 92 94 93 99 100 100 100 100 99 82 30 23 22 21 20 18 18 35 62 70 75 76 79 79 89 97 100 99 89 85 84 69 75 84 60 66 66 61 58 56 58
100 100 100 100 100 100 99 100 98 63 32 29 26 24 23 20 18 18 71 97 94 84 78 72 69 77 73 65 67 74 75 85 82 74 77 86 71 81 72 63 61 65 68
100 100 100 100 99 99 85 33 27 29 27 29 30 24 23 21 29 68 100 98 98 74 58 52 48 48 58 65 72 79 85 91 96 94 87 97 81 86 98 83 78 74 67
Wind_Speed
19 17 16 15 14 12 11 10 9 8 7 7 8 8 8 6 4 2 3 6 8 8 5 2 2 2 4 5 7 8 7 7 8 9 11 11 12 12 12 13 13 13 13
21 19 18 17 15 13 13 12 10 10 9 9 9 8 7 5 4 3 3 4 4 4 4 3 2 3 4 6 8 9 9 9 10 11 12 12 13 13 13 13 14 14 15
24 21 20 19 17 16 15 13 11 11 11 10 10 9 7 6 5 4 4 4 4 4 3 3 3 4 5 6 8 10 11 12 13 13 14 15 15 15 15 15 15 15 15
26 23 22 21 19 18 17 15 12 12 12 12 11 9 8 7 6 5 5 4 4 4 5 4 4 6 7 7 8 10 13 16 17 16 15 16 17 17 16 15 15 15 15
26 25 23 20 20 20 18 17 14 13 13 13 12 10 9 8 8 7 7 6 6 6 7 6 7 6 8 9 10 12 14 16 18 19 18 17 17 15 14 13 14 14 14
27 26 23 22 21 22 21 19 16 15 15 14 13 11 10 9 9 9 9 8 8 8 8 9 8 9 9 11 13 15 16 15 16 17 17 16 15 13 13 13 14 14 14
28 28 25 23 21 21 19 19 18 18 17 16 14 12 11 11 11 12 11 10 10 11 11 12 11 12 13 15 17 18 18 18 18 17 16 14 14 13 13 15 15 15 16
31 30 25 26 24 23 22 22 21 20 19 18 16 13 9 12 14 15 14 13 13 14 14 14 15 16 17 19 22 21 20 19 19 18 16 14 13 14 16 17 18 19 19
33 33 31 30 27 25 22 21 22 22 21 20 20 14 8 8 12 16 17 15 15 15 16 17 18 19 21 24 24 23 22 20 18 18 16 14 16 17 18 20 21 22 23
36 35 36 33 29 30 29 23 22 23 22 23 22 22 19 11 8 8 15 16 16 18 18 19 20 22 24 25 24 23 23 21 22 20 18 17 19 21 22 24 25 26 25
39 37 38 37 35 36 33 30 28 28 26 26 25 23 22 19 16 14 9 13 17 18 19 20 23 24 25 24 23 22 24 24 22 22 26 24 23 25 25 25 25 25 25
45 42 37 40 40 38 37 33 32 31 30 29 28 26 24 21 18 16 15 14 14 16 19 21 23 24 24 23 23 24 23 22 29 29 30 29 25 25 26 27 27 27 27
46 46 43 41 43 40 40 37 36 35 33 31 28 27 25 22 18 16 15 15 16 17 18 20 21 21 21 23 22 22 28 30 31 32 30 29 27 26 26 25 25 26 26
41 46 48 45 42 42 41 40 39 37 35 33 29 24 23 20 17 15 15 14 15 17 21 20 19 21 20 20 26 29 31 31 31 30 30 30 30 29 26 25 26 27 27
36 38 44 47 47 44 42 41 40 40 37 35 29 24 24 17 15 15 14 18 17 13 20 22 18 19 22 28 30 32 32 32 32 32 31 30 29 28 27 25 26 27 28
37 37 40 41 47 48 40 40 40 39 35 32 31 28 24 18 15 12 15 16 17 17 19 20 23 26 26 29 30 31 31 31 31 31 31 29 28 24 25 26 26 27 27
35 37 37 40 42 42 38 38 39 37 32 29 27 23 19 16 15 13 15 18 19 19 23 25 27 26 28 30 30 30 29 31 31 30 29 28 26 24 24 25 26 26 28
30 32 34 36 37 36 35 38 38 35 30 27 23 18 15 16 14 15 19 19 19 20 24 27 28 28 29 29 30 31 31 30 31 28 25 23 24 25 25 25 24 26 27
24 26 28 31 32 33 36 38 34 30 29 25 18 15 14 16 12 16 17 19 20 22 23 27 29 28 30 30 32 32 33 33 29 25 24 25 23 21 21 23 24 26 28
21 24 27 28 30 34 33 33 31 27 22 19 18 15 12 17 15 16 19 21 22 22 23 25 27 28 29 30 32 34 37 33 30 27 26 24 22 25 23 25 27 28 29
21 25 27 27 26 27 30 28 24 22 19 15 13 10 9 14 15 20 21 20 21 22 22 24 26 28 31 31 32 33 34 31 32 29 30 30 30 29 27 28 28 25 24
21 22 21 21 25 26 24 22 22 19 15 12 12 14 14 15 18 18 18 19 19 20 22 23 25 28 30 32 32 30 28 32 36 33 38 39 33 34 34 29 27 27 26
18 18 19 22 24 22 21 18 16 12 10 9 11 8 14 15 17 17 18 18 18 18 18 20 25 28 30 29 26 27 29 32 35 36 38 44 38 39 33 34 31 30 27
15 17 21 20 19 16 14 12 9 6 6 6 11 10 13 14 16 16 17 17 17 18 21 24 25 27 25 22 24 28 32 34 36 34 32 40 38 38 39 39 36 28 26
20 20 20 18 15 13 10 8 3 1 6 8 9 11 13 15 15 15 14 16 20 23 23 22 21 21 22 22 23 26 28 31 36 36 34 29 39 43 44 42 36 37 38
21 19 16 12 9 7 5 5 2 3 6 9 11 13 14 15 14 12 13 19 23 23 20 21 21 19 18 18 20 22 25 27 29 35 28 29 40 39 31 39 41 41 39
Wind_Direction
220 220 223 227 230 233 236 239 239 250 267 284 295 306 309 312 304 259 219 229 239 256 274 294 329 335 333 328 325 324 324 321 317 312 308 305 299 293 289 286 284 280 275
226 225 226 227 230 237 237 237 242 252 269 282 292 295 292 291 273 255 230 225 232 244 256 275 294 316 316 317 321 321 322 323 320 317 312 305 304 302 296 290 285 280 276
232 231 228 229 232 235 231 231 244 256 273 276 278 276 272 267 256 236 216 212 215 223 241 255 283 296 303 312 318 321 322 320 317 314 308 307 306 303 299 296 291 285 279
236 234 230 230 234 235 230 230 245 257 268 270 270 266 263 259 251 230 215 215 219 222 236 248 273 290 294 301 308 313 317 318 316 314 309 305 304 302 301 298 297 295 289
236 233 230 230 235 234 236 236 245 254 264 263 259 258 255 253 245 222 215 222 221 231 240 252 292 293 295 299 308 313 314 313 313 312 309 303 301 302 304 309 312 308 307
235 230 228 228 232 229 232 234 245 253 257 254 252 247 245 245 232 220 220 228 232 242 254 276 285 290 291 299 308 310 311 310 308 305 304 305 302 301 305 314 318 316 313
234 230 228 223 230 231 234 238 246 249 250 244 239 236 235 235 224 224 227 236 244 251 263 276 287 293 297 304 308 308 307 304 302 300 299 301 301 301 303 307 311 309 308
238 237 232 228 230 226 229 235 244 247 244 237 232 230 225 230 230 228 230 240 247 257 267 276 282 290 297 302 307 307 304 300 298 295 296 299 298 298 297 299 300 303 299
241 239 232 229 231 228 236 242 244 246 245 236 232 223 208 221 219 230 234 245 252 257 264 273 280 287 296 303 306 305 303 300 295 291 295 295 293 295 295 294 293 293 294
245 240 235 236 235 239 238 241 239 240 242 237 233 232 234 237 210 221 236 243 249 256 261 269 276 286 294 300 301 300 298 297 294 290 292 295 293 292 291 291 289 289 288
245 244 239 236 234 236 239 239 237 234 237 233 232 235 232 233 232 233 239 241 246 252 259 266 274 283 290 295 296 295 295 293 291 291 292 293 294 293 292 291 289 286 284
247 245 243 240 240 242 238 241 234 234 235 238 232 232 235 231 233 233 237 249 253 258 262 268 273 280 287 292 293 293 293 290 296 297 296 294 295 292 289 287 285 282 284
246 243 243 242 241 240 241 237 234 232 233 230 237 233 230 231 235 237 244 250 256 263 265 269 273 280 283 288 288 287 293 297 298 298 298 296 294 291 290 289 288 286 283
248 245 244 242 242 242 239 235 233 233 230 228 222 238 236 231 234 242 249 260 267 269 278 283 287 290 290 292 296 299 304 305 305 305 302 298 294 291 291 289 288 287 285
247 245 246 245 240 237 236 235 231 232 230 227 225 224 235 233 240 252 267 274 268 269 287 292 287 290 292 295 300 304 307 308 309 308 307 302 296 291 291 291 290 288 288
247 245 241 245 238 237 234 230 226 229 228 222 217 215 225 233 243 254 269 276 278 279 274 288 289 291 293 297 301 303 304 306 307 307 305 302 297 295 292 290 290 286 285
252 249 241 239 237 231 229 224 225 224 217 216 209 216 228 238 249 269 277 282 283 285 282 286 289 294 296 300 301 302 305 307 308 309 306 302 299 297 293 288 285 286 284
253 250 244 236 230 224 223 221 219 215 210 210 209 222 231 240 253 271 278 284 285 286 285 290 294 299 299 302 306 309 313 314 312 311 307 305 304 299 294 290 289 287 286
256 247 238 229 223 222 219 216 215 213 203 210 221 211 237 261 262 270 278 280 282 284 287 291 296 301 303 308 310 312 314 315 316 316 313 310 307 307 304 302 293 288 285
247 232 223 219 218 214 209 205 202 203 211 213 217 223 225 256 269 286 286 281 281 283 288 292 296 300 302 308 311 315 317 321 318 316 316 315 314 315 315 308 301 298 292
232 222 217 212 205 200 197 199 205 201 201 204 219 255 268 274 290 275 275 279 283 290 293 294 297 296 300 309 312 315 313 318 316 318 322 320 319 320 321 316 309 304 299
217 211 204 201 193 191 196 191 197 198 205 217 230 248 279 281 277 282 282 278 281 287 288 288 291 295 302 306 311 312 317 319 317 323 320 315 318 319 322 317 312 309 306
194 189 184 180 177 181 192 196 201 209 227 248 262 285 265 279 285 290 286 282 281 279 280 287 290 296 299 304 312 314 312 307 307 314 315 310 318 316 320 313 313 312 306
165 161 164 171 175 173 175 188 197 205 247 283 250 268 281 288 294 294 291 293 294 294 297 295 295 298 301 309 308 304 304 303 303 309 311 306 317 315 316 314 316 314 315
159 159 156 152 158 155 174 202 213 357 217 249 279 296 303 304 302 296 299 295 296 299 301 298 293 292 296 303 306 303 306 307 307 311 313 305 318 316 315 315 318 320 319
143 142 139 141 146 164 131 145 170 253 284 298 312 316 310 308 305 306 303 295 297 307 307 301 303 304 309 310 309 306 308 307 308 312 313 308 314 315 314 310 313 314 313